Time,TemperatureF,DewpointF,PressureIn,WindDirection,WindDirectionDegrees,WindSpeedMPH,WindSpeedGustMPH,Humidity,HourlyPrecipIn,Conditions,Clouds,dailyrainin,SoftwareType,DateUTC
2015-01-29 00:01:00,34.5,32.1,29.90,NNW,334,7.0,10.0,91,0.00,,,0.00,Wunderground v.1.15,2015-01-29 06:01:00,
2015-01-29 00:11:00,34.5,32.1,29.90,North,355,7.0,14.0,91,0.00,,,0.00,Wunderground v.1.15,2015-01-29 06:11:00,
2015-01-29 00:21:00,34.4,32.0,29.90,North,5,8.0,8.0,91,0.00,,,0.00,Wunderground v.1.15,2015-01-29 06:21:00,
2015-01-29 00:31:00,34.4,32.0,29.91,North,360,7.0,7.0,91,0.00,,,0.00,Wunderground v.1.15,2015-01-29 06:31:00,
2015-01-29 00:41:00,34.4,32.0,29.92,NW,317,7.0,8.0,91,0.00,,,0.00,Wunderground v.1.15,2015-01-29 06:41:00,
2015-01-29 00:51:00,34.4,32.0,29.92,NNW,345,6.0,6.0,91,0.00,,,0.00,Wunderground v.1.15,2015-01-29 06:51:00,
2015-01-29 01:01:00,34.5,32.1,29.93,North,355,7.0,8.0,91,0.00,,,0.00,Wunderground v.1.15,2015-01-29 07:01:00,
2015-01-29 01:11:00,34.4,32.3,29.93,NNW,345,7.0,7.0,92,0.00,,,0.00,Wunderground v.1.15,2015-01-29 07:11:00,
2015-01-29 01:21:00,34.3,32.5,29.93,WSW,254,6.0,6.0,93,0.00,,,0.00,Wunderground v.1.15,2015-01-29 07:21:00,
2015-01-29 01:31:00,34.2,32.4,29.94,North,350,6.0,6.0,93,0.00,,,0.00,Wunderground v.1.15,2015-01-29 07:31:00,
2015-01-29 01:41:00,34.1,32.6,29.95,NW,305,7.0,7.0,94,0.00,,,0.00,Wunderground v.1.15,2015-01-29 07:41:00,
2015-01-29 01:51:00,34.1,32.6,29.95,NNW,335,7.0,7.0,94,0.00,,,0.00,Wunderground v.1.15,2015-01-29 07:51:00,
2015-01-29 02:01:00,34.2,32.4,29.96,NNW,333,7.0,7.0,93,0.00,,,0.00,Wunderground v.1.15,2015-01-29 08:01:00,
2015-01-29 02:11:00,34.4,32.3,29.97,NNW,327,7.0,9.0,92,0.00,,,0.00,Wunderground v.1.15,2015-01-29 08:11:00,
2015-01-29 02:21:00,34.4,32.3,29.98,North,355,5.0,9.0,92,0.00,,,0.00,Wunderground v.1.15,2015-01-29 08:21:00,
2015-01-29 02:31:00,34.6,32.5,29.98,North,5,7.0,9.0,92,0.00,,,0.00,Wunderground v.1.15,2015-01-29 08:31:00,
2015-01-29 02:41:00,34.4,32.6,29.98,NNE,29,7.0,9.0,93,0.00,,,0.00,Wunderground v.1.15,2015-01-29 08:41:00,
2015-01-29 02:51:00,34.3,32.8,29.99,WNW,289,7.0,9.0,94,0.00,,,0.00,Wunderground v.1.15,2015-01-29 08:51:00,
2015-01-29 03:01:00,34.1,32.6,30.00,NNE,30,6.0,6.0,94,0.00,,,0.00,Wunderground v.1.15,2015-01-29 09:01:00,
2015-01-29 03:11:00,33.9,32.4,30.00,NNW,337,7.0,8.0,94,0.00,,,0.00,Wunderground v.1.15,2015-01-29 09:11:00,
2015-01-29 03:21:00,33.9,32.1,30.01,NNE,13,8.0,9.0,93,0.00,,,0.00,Wunderground v.1.15,2015-01-29 09:21:00,